www.pogodaiklimat.ru

Погода и климат >> Архив погоды >> Пакистан >> Kakul


ПОГОДА в Kakul

  • Прогноз погоды в Kakul
  • Монитор погоды в Kakul
  • Климат города

АРХИВ ПОГОДЫ в Kakul

Время (UTC), дата Ветер
(напр.,м/с)
 
Видим.   Явления Облачность Т
(С)
Тd
(С)
f
(%)
Тe
(С)
Тes
(С)
Комфортность P
(гПа)
Po
(гПа)
Тmin
(С)
Tmax
(С)
R
(мм)
R24
(мм)
S
(см)
00 12.12 штиль 0 4000 м ясно +0.5 -0.8 91 -1 -1 848.6 849.0
03 12.12 штиль 0 10 км ясно +1.0 -0.3 91 -0 0 824.6 1000.0 -0.5
06 12.12 штиль 0 10 км ясно +8.0 +2.3 67 +7 +15 814.0 1025.2
09 12.12 СЗ 1 10 км 6/6 300 м
[Sc]
+10.0 +3.5 64 +11 +13 810.0 1000.0
12 12.12 штиль 0 10 км 9/3 300 м
[Sc As op]
+7.5 +3.0 73 +7 +7 807.0 1000.0 +11.5
15 12.12 штиль 0 4000 м ясно +4.5 +0.7 76 +4 +4 813.0 1000.0
18 12.12 штиль 0 4000 м ясно +3.0 +0.5 84 +2 +2 820.0 1000.0
21 12.12 штиль 0 4000 м ясно +1.5 +0.9 96 0 0 810.0 1000.0
00 13.12 штиль 0 4000 м ясно +0.5 -0.8 91 -1 -1 800.0 1000.0
03 13.12 штиль 0 10 км ясно +0.5 -0.8 91 -1 -0 819.0 1000.0 -0.5
06 13.12 штиль 0 10 км ясно +9.5 +2.3 61 +9 +17 840.0 1000.0
09 13.12 штиль 0 10 км 3/0
[Ac trans]
+12.0 +3.5 56 +12 +17 834.0 1000.0
12 13.12 штиль 0 10 км ясно +10.0 +4.7 70 +9 +9 823.0 1000.0 +13.1
15 13.12 штиль 0 4000 м ясно +5.5 +2.0 78 +5 +5 830.0 1000.0
18 13.12 штиль 0 4000 м ясно +3.0 +0.5 84 +2 +2 829.0 1000.0
21 13.12 штиль 0 4000 м ясно +1.5 -1.1 83 0 0 817.3 1000.0
00 14.12 штиль 0 4000 м ясно +0.5 -0.8 91 -1 -1 813.0 1000.0
03 14.12 штиль 0 10 км ясно 0.0 -1.4 90 -1 -1 834.0 1000.0 -0.9
06 14.12 штиль 0 10 км ясно +9.5 +0.1 52 +9 +17 848.0 1000.0
09 14.12 штиль 0 10 км ясно +13.0 +2.1 47 +13 +19 853.0 1000.0
12 14.12 штиль 0 10 км ясно +11.0 +2.2 55 +11 +11 847.0 1000.0 +13.5
15 14.12 штиль 0 4000 м ясно +5.0 +1.4 78 +4 +4 851.0 1000.0
18 14.12 штиль 0 4000 м ясно +3.5 +1.0 84 +3 +3 860.0 1000.0
21 14.12 штиль 0 4000 м ясно +1.5 +0.2 91 0 0 853.0 1000.0
00 15.12 штиль 0 4000 м ясно 0.0 -1.4 90 -1 -1 843.0 1000.0
03 15.12 штиль 0 10 км ясно -0.5 -1.9 90 -2 -1 847.0 1000.0 -1.5
06 15.12 штиль 0 10 км ясно +9.0 -2.2 45 +9 +16 853.0 1000.0
09 15.12 СЗ 1 10 км ясно +15.0 -4.9 25 +17 +22 849.0 1000.0
12 15.12 штиль 0 10 км ясно +12.5 -1.8 37 +12 +12 847.0 1000.0 +12.5
15 15.12 штиль 0 4000 м ясно +5.5 +0.7 71 +5 +5 853.0 1000.0
18 15.12 штиль 0 4000 м ясно +3.5 -0.3 76 +3 +3 860.0 927.7
21 15.12 штиль 0 4000 м ясно +2.0 -0.6 83 +1 +1 855.0 855.0
00 16.12 штиль 0 4000 м ясно 0.0 -1.4 90 -1 -1 854.0 854.0
03 16.12 штиль 0 10 км ясно 0.0 -2.8 81 -1 -0 858.7 926.8 -0.9
06 16.12 штиль 0 10 км ясно +10.0 -2.4 42 +10 +17 862.0 1000.0
09 16.12 штиль 0 10 км ясно +15.5 -1.9 30 +16 +21 857.0 1000.0
12 16.12 штиль 0 10 км ясно +14.0 -1.0 36 +14 +14 847.0 1000.0 +16.5
15 16.12 штиль 0 4000 м ясно +7.0 -0.3 60 +7 +7 842.0 1000.0
18 16.12 штиль 0 4000 м ясно +4.5 -2.0 63 +4 +4 848.0 1000.0
21 16.12 штиль 0 4000 м ясно +2.5 -1.5 75 +2 +2 838.0 1000.0
00 17.12 штиль 0 4000 м ясно +0.5 -2.3 81 -1 -1 832.0 1000.0
03 17.12 штиль 0 10 км ясно +0.5 -3.8 73 -0 0 835.0 1000.0 -0.9
06 17.12 штиль 0 10 км ясно +11.0 -4.4 34 +11 +19 853.0 1000.0
09 17.12 ЮЗ 1 10 км ясно +16.0 -4.9 23 +18 +23 836.0 1000.0
12 17.12 штиль 0 10 км ясно +15.0 -2.8 29 +15 +15 827.0 1000.0 +16.5
15 17.12 штиль 0 4000 м ясно +8.0 +1.0 61 +8 +8 827.0 1000.0
18 17.12 штиль 0 4000 м ясно +6.0 -0.1 65 +5 +5 837.0 1000.0
21 17.12 штиль 0 4000 м ясно +3.5 -0.3 76 +3 +3 830.0 1000.0
00 18.12 штиль 0 4000 м ясно +1.0 -1.7 82 0 0 819.0 1000.0
03 18.12 штиль 0 10 км ясно +1.5 -2.7 74 +1 +1 821.0 1000.0 +0.1
06 18.12 штиль 0 10 км ясно +12.0 -4.6 31 +12 +20 823.7 1000.0
09 18.12 ЮЗ 1 10 км ясно +17.0 -2.8 26 +19 +24 823.0 1000.0
12 18.12 штиль 0 10 км ясно +16.0 -0.9 31 +16 +16 815.0 1000.0 +18.1
15 18.12 штиль 0 4000 м 6/0
[As op]
+9.0 +0.9 57 +9 +9 812.0 1000.0
18 18.12 штиль 0 4000 м 3/0
[Ac trans]
+6.0 -0.1 65 +5 +5 810.0 1000.0

 

Местоположение метеостанции Kakul (Пакистан): широта 34.18 долгота 73.25 высота над уровнем моря 1309 м.

В архиве по умолчанию представлена погода в Kakul за последнюю неделю. Архивные данные за месяц целиком и за предыдущие месяцы, начиная с января 2011 года, Вы можете получить, выбрав интересующий диапазон дат из раскрывающегося списка и нажав кнопку "Ввод!".


*Определитесь, кто Вы:
робот инопланетянин человек

Внимание! Время в таблицах - всемирное. Для получения местного времени необходимо прибавить поправку, которая в Kakul равна 5 ч.

Смотрите также архив погоды в соседних городах и на ближайших метеорологических станциях:

Погода в Balakor (Пакистан) (24 км)
Погода в Murree (Пакистан) (31 км)
Погода в Islamabad (Пакистан) (64 км)
Погода в Kupwara (Jammu and Kashmir, Индия) (100 км)
Погода в Saidu Sharif (Пакистан) (103 км)
Погода в Gulmarg (Jammu and Kashmir, Индия) (107 км)
Погода в Risalpur (Пакистан) (118 км)
Погода в Jhelum (Пакистан) (146 км)
Погода в Srinagar (Jammu and Kashmir, Индия) (146 км)
Погода в Peshawar (Пакистан) (155 км)

Пояснения к столбцам:

Ветер - указаны скорость ветра в м/с - средняя за 10 мин, порывы в срок и между сроками (в фигурных скобках) и направление, откуда дует ветер: С - северный, СВ - северо-восточный, В - восточный, ЮВ - юго-восточный, Ю - южный, ЮЗ - юго-западный, З - западный, СЗ - северо-западный.
Видимость - горизонтальная дальность видимости в метрах или километрах. При видимости от 1 до 10 км при отсутствии осадков обычно наблюдается дымка, при ухудшении видимости до 1 км и менее - туман. В сухую погоду видимость может ухудшаться дымом, пылью или мглою.
Явления - указаны атмосферные явления, наблюдавшиеся в срок или в последний час перед сроком; фигурными скобками обозначены явления, наблюдавшиеся между сроками (за 1-3 часа до срока); квадратными скобками обозначены град или гололедные отложения с указанием их диаметра в мм.
Облачность - указаны через наклонную черту общая и нижняя облачность в баллах и высота нижней границы облаков в метрах; квадратными скобками обозначены формы облаков: Ci - перистые, Cs - перисто-слоистые, Cc - перисто-кучевые, Ac - высококучевые, As - высокослоистые, Sc - слоисто-кучевые, Ns - слоисто-дождевые, Cu - кучевые, Cb - кучево-дождевые. Подробнее классификацию облаков см. в Атласе облаков (PDF).
T - Температура воздуха - температура, измеренная на высоте 2 м над землей.
Td - Температура точки росы - температура, при понижении до которой содержащийся в воздухе водяной пар достигнет насыщения.
f - Относительная влажность воздуха - влажноcть воздуха, измеренная на высоте 2 м над землей.
Te - Эффективная температура - температура, которую ощущает одетый по сезону человек в тени. Характеристика душности погоды. При расчете учитывается влияние влажности воздуха и скорости ветра на теплоощущения человека.
Tes - Эффективная температура на солнце - температура, которую ощущает человек, с поправкой на солнечный нагрев. Характеристика знойности погоды. Зависит от высоты солнца над горизонтом, облачности и скорости ветра. Ночью, в пасмурную погоду, а также при ветре 12 м/с и более поправка равна нулю.
P - Атмосферное давление - приведенное к уровню моря атмосферное давление.
Po - Атмосферное давление - измеренное на уровне метеостанции атмосферное давление.
Tmin - Минимальная температура - минимум температуры воздуха на высоте 2 м над землей.
Tmax - Максимальная температура - максимум температуры воздуха на высоте 2 м над землей.
R - Количество осадков - Количество выпавших осадков за период времени, мм. При наведении курсора мыши на число - период времени, за который выпало указанное количество осадков.
R24 - Количество осадков - Количество выпавших осадков за 24 часа, мм.
S - Снежный покров - Высота снежного покрова, см. При наведении курсора мыши на число - состояние снежного покрова и степень покрытия местности в баллах.